Date String (YYYY-MM-DD hh:mm:ss) UTC,Instrument flags,Ambient pressure (hPa),Sample flow (lpm),Bypass flow (lpm),Sample temperature (°C),Ambient temperature (°C),ASC tube jacket temperature (°C),LED temperature (°C),Box temperature (°C),Sample RH (%),Span deviation,Mass concentration (μg/m³),Mass concentration (μg/m³),Mass concentration (μg/m³)
DateTimeUTC,F1_M11,P_M11,Q1_M11,Q2_M11,T1_M11,T2_M11,T3_M11,T4_M11,T5_M11,U1_M11,ZSPAN_M11,X0_M11,X2_M11,X1_M11
2022-03-01 05:00:00,,0829.5,5.00,0.00,27.2,26.3,00.0,36.3,28.9,07.0,0000.0,0001.55,0000.85,0000.51
2022-03-01 05:01:00,,0829.5,5.01,0.00,27.1,26.3,00.0,36.3,28.9,07.1,0000.0,0001.45,0000.82,0000.50
2022-03-01 05:02:00,,0829.5,5.00,0.00,27.1,26.3,00.0,36.3,28.9,07.0,0000.0,0001.42,0000.80,0000.51
2022-03-01 05:03:00,,0829.5,5.00,0.00,27.1,26.3,00.0,36.3,28.8,07.0,0000.0,0001.49,0000.82,0000.51
2022-03-01 05:04:00,,0829.5,5.00,0.00,27.1,26.3,00.0,36.3,28.8,06.9,0000.0,0001.51,0000.85,0000.51
2022-03-01 05:05:00,,0829.5,4.99,0.00,27.1,26.3,00.0,36.2,28.8,07.0,0000.0,0001.42,0000.84,0000.51
2022-03-01 05:06:00,,0829.5,4.99,0.00,27.1,26.3,00.0,36.2,28.8,07.0,0000.0,0001.42,0000.84,0000.51
2022-03-01 05:07:00,,0829.5,5.00,0.00,27.1,26.3,00.0,36.2,28.8,07.0,0000.0,0002.54,0000.82,0000.52
2022-03-01 05:08:00,,0829.5,5.00,0.00,27.1,26.3,00.0,36.2,28.8,07.0,0000.0,0002.80,0000.85,0000.53
2022-03-01 05:09:00,,0829.4,5.00,0.00,27.1,26.3,00.0,36.2,28.8,07.0,0000.0,0002.80,0000.86,0000.52
2022-03-01 05:10:00,,0829.5,5.01,0.00,27.1,26.2,00.0,36.2,28.8,06.9,0000.0,0002.84,0000.88,0000.53
2022-03-01 05:11:00,,0829.5,5.01,0.00,27.1,26.2,00.0,36.2,28.8,06.9,0000.0,0002.78,0000.86,0000.53
2022-03-01 05:12:00,,0829.5,5.00,0.00,27.1,26.3,00.0,36.2,28.8,06.9,0000.0,0002.93,0000.92,0000.54
2022-03-01 05:13:00,,0829.5,5.00,0.00,27.1,26.3,00.0,36.2,28.8,06.8,0000.0,0002.93,0000.92,0000.54
2022-03-01 05:14:00,,0829.5,5.00,0.00,27.0,26.2,00.0,36.2,28.7,06.8,0000.0,0002.91,0000.92,0000.53
2022-03-01 05:15:00,,0829.6,5.00,0.00,27.0,26.2,00.0,36.1,28.8,07.0,0000.0,0002.87,0000.91,0000.54
2022-03-01 05:16:00,,0829.6,5.00,0.00,27.0,26.2,00.0,36.1,28.8,06.9,0000.0,0002.93,0000.93,0000.54
2022-03-01 05:17:00,,0829.6,4.99,0.00,27.0,26.2,00.0,36.1,28.8,06.9,0000.0,0003.03,0000.96,0000.54
2022-03-01 05:18:00,,0829.5,5.00,0.00,27.1,26.2,00.0,36.1,28.8,06.9,0000.0,0001.88,0000.99,0000.54
2022-03-01 05:19:00,,0829.5,5.00,0.00,27.1,26.2,00.0,36.1,28.8,07.0,0000.0,0001.79,0000.99,0000.54
2022-03-01 05:20:00,,0829.5,5.00,0.00,27.1,26.3,00.0,36.1,28.7,07.0,0000.0,0001.85,0001.00,0000.53
2022-03-01 05:21:00,,0829.5,5.00,0.00,27.1,26.2,00.0,36.1,28.7,07.0,0000.0,0001.77,0000.95,0000.53
2022-03-01 05:22:00,,0829.5,5.01,0.00,27.1,26.2,00.0,36.1,28.7,07.1,0000.0,0001.91,0001.00,0000.53
2022-03-01 05:23:00,,0829.5,4.98,0.00,27.1,26.2,00.0,36.1,28.8,06.9,0000.0,0001.80,0000.96,0000.52
2022-03-01 05:24:00,,0829.4,5.00,0.00,27.1,26.2,00.0,36.1,28.8,07.0,0000.0,0001.79,0000.96,0000.53
2022-03-01 05:25:00,,0829.4,5.00,0.00,27.1,26.2,00.0,36.1,28.8,07.3,0000.0,0001.81,0000.97,0000.54
2022-03-01 05:26:00,,0829.3,4.99,0.00,27.1,26.2,00.0,36.1,28.7,07.1,0000.0,0001.91,0000.98,0000.54
2022-03-01 05:27:00,,0829.6,5.00,0.00,27.1,26.2,00.0,36.1,28.8,07.1,0000.0,0001.89,0000.98,0000.54
2022-03-01 05:28:00,,0829.4,5.01,0.00,27.1,26.2,00.0,36.1,28.8,07.2,0000.0,0002.02,0000.99,0000.54
2022-03-01 05:29:00,,0829.2,5.00,0.00,27.1,26.2,00.0,36.1,28.8,07.3,0000.0,0002.04,0000.99,0000.54
2022-03-01 05:30:00,,0829.2,5.00,0.00,27.1,26.2,00.0,36.1,28.8,07.1,0000.0,0001.99,0000.98,0000.54
2022-03-01 05:31:00,,0829.2,4.99,0.00,27.1,26.3,00.0,36.1,28.8,07.3,0000.0,0002.00,0001.01,0000.54
2022-03-01 05:32:00,,0829.2,5.00,0.00,27.0,26.2,00.0,36.1,28.7,07.3,0000.0,0002.13,0001.05,0000.55
2022-03-01 05:33:00,,0829.2,5.00,0.00,27.0,26.2,00.0,36.1,28.7,07.2,0000.0,0002.01,0001.01,0000.55
2022-03-01 05:34:00,,0829.2,5.00,0.00,27.0,26.1,00.0,36.1,28.7,07.3,0000.0,0001.96,0000.99,0000.55
2022-03-01 05:35:00,,0829.2,5.00,0.00,27.0,26.1,00.0,36.1,28.7,07.2,0000.0,0001.86,0000.95,0000.55
2022-03-01 05:36:00,,0829.2,4.99,0.00,27.0,26.1,00.0,36.1,28.7,07.0,0000.0,0001.77,0000.92,0000.55
2022-03-01 05:37:00,,0829.2,4.99,0.00,27.0,26.1,00.0,36.1,28.7,07.0,0000.0,0001.63,0000.89,0000.54
2022-03-01 05:38:00,,0829.2,5.00,0.00,27.0,26.1,00.0,36.1,28.7,06.9,0000.0,0001.84,0000.90,0000.54
2022-03-01 05:39:00,,0829.2,5.00,0.00,27.0,26.1,00.0,36.1,28.7,06.9,0000.0,0002.95,0000.89,0000.54
2022-03-01 05:40:00,,0829.1,5.00,0.00,26.9,26.1,00.0,36.1,28.7,06.8,0000.0,0002.91,0000.88,0000.55
2022-03-01 05:41:00,,0829.2,5.00,0.00,26.9,26.1,00.0,36.0,28.7,06.8,0000.0,0002.89,0000.87,0000.55
2022-03-01 05:42:00,,0829.2,5.01,0.00,26.9,26.1,00.0,36.0,28.7,06.8,0000.0,0002.83,0000.85,0000.55
2022-03-01 05:43:00,,0829.1,5.00,0.00,26.9,26.1,00.0,36.0,28.7,06.8,0000.0,0002.74,0000.82,0000.54
2022-03-01 05:44:00,,0829.1,5.00,0.00,26.9,26.1,00.0,36.0,28.7,06.8,0000.0,0002.70,0000.82,0000.54
2022-03-01 05:45:00,,0829.1,5.00,0.00,26.9,26.1,00.0,36.0,28.7,06.7,0000.0,0002.78,0000.85,0000.54
2022-03-01 05:46:00,,0829.1,5.00,0.00,26.9,26.1,00.0,36.0,28.6,06.7,0000.0,0002.91,0000.87,0000.54
2022-03-01 05:47:00,,0829.0,5.00,0.00,26.9,26.1,00.0,36.0,28.6,06.8,0000.0,0002.96,0000.88,0000.54
2022-03-01 05:48:00,,0829.0,5.00,0.00,26.9,26.1,00.0,36.0,28.6,06.8,0000.0,0003.12,0000.91,0000.55
2022-03-01 05:49:00,,0829.0,5.00,0.00,26.9,26.1,00.0,36.0,28.6,07.1,0000.0,0002.85,0000.89,0000.54
2022-03-01 05:50:00,,0829.0,4.99,0.00,26.9,26.1,00.0,36.0,28.7,07.3,0000.0,0001.90,0000.88,0000.54
2022-03-01 05:51:00,,0828.9,4.99,0.00,26.9,26.1,00.0,36.0,28.6,07.3,0000.0,0002.24,0000.88,0000.54
2022-03-01 05:52:00,,0828.9,4.99,0.00,26.9,26.1,00.0,36.0,28.6,07.3,0000.0,0002.31,0000.90,0000.54
2022-03-01 05:53:00,,0828.8,5.00,0.00,26.9,26.1,00.0,36.0,28.6,07.0,0000.0,0002.32,0000.90,0000.55
2022-03-01 05:54:00,,0828.9,5.00,0.00,26.9,26.1,00.0,35.9,28.6,06.7,0000.0,0002.26,0000.88,0000.54
2022-03-01 05:55:00,,0828.9,5.00,0.00,26.9,26.1,00.0,36.0,28.7,06.7,0000.0,0002.25,0000.86,0000.54
2022-03-01 05:56:00,,0828.8,5.00,0.00,26.9,26.2,00.0,36.0,28.7,06.7,0000.0,0002.24,0000.87,0000.55
2022-03-01 05:57:00,,0829.0,5.00,0.00,26.9,26.1,00.0,36.0,28.7,06.7,0000.0,0002.10,0000.85,0000.55
2022-03-01 05:58:00,,0829.2,5.00,0.00,26.9,26.1,00.0,35.9,28.7,06.7,0000.0,0002.07,0000.83,0000.54
2022-03-01 05:59:00,,0829.1,5.00,0.00,26.9,26.2,00.0,35.9,28.7,06.8,0000.0,0002.01,0000.81,0000.53
